SCP
0 0 0 0 0 0 0 0 0 0 0 0 0 0 0 0 0 0 0 0 0 0 0 0 0 0 0 0 0 0 0 0 0 0 1 1 0 0 0 1 0 0 0 0
0 0 0 0 0 0 0 0 0 0 0 0 0 0 0 0 0 0 0 0 0 0 0 0 0 0 0 0 0 0 0 0 0 0 1 1 0 0 0 0 0 0 0 0
0 0 0 0 0 0 0 0 0 0 0 0 0 0 0 0 0 0 0 0 0 0 0 0 0 0 0 0 0 0 0 0 0 0 0 0 0 0 0 0 0 0 0 0
0 0 0 0 0 0 0 0 0 0 0 0 0 0 0 0 0 0 0 0 0 0 0 0 0 0 0 0 0 0 0 0 0 0 0 0 0 0 0 0 0 0 0 0
0 0 0 0 0 0 0 0 0 0 0 0 0 0 0 0 0 0 0 0 0 0 0 0 0 0 0 0 0 0 0 0 0 0 0 0 0 0 0 0 0 0 0 0
0 0 0 0 0 0 0 0 0 0 0 0 0 0 0 0 0 0 0 0 0 0 0 0 0 0 0 0 0 0 0 0 0 0 0 0 0 0 0 0 0 0 0 0
0 0 0 0 0 0 0 0 0 0 0 0 0 0 0 0 0 0 0 0 0 0 0 0 0 0 0 0 0 0 0 0 0 0 0 0 0 0 0 0 0 0 0 0
0 0 0 0 0 0 0 0 0 0 0 0 0 0 0 0 0 0 0 0 0 0 0 0 0 0 0 0 0 0 0 0 0 0 0 0 0 0 0 0 0 0 0 0
0 0 0 0 0 0 0 0 0 0 0 0 0 0 0 0 0 0 0 0 0 0 0 0 0 0 0 0 0 0 0 0 0 0 0 0 0 0 0 0 0 0 0 0
0 0 0 0 0 0 0 0 0 0 0 0 0 0 0 0 0 0 0 0 0 0 0 0 0 0 0 0 0 0 0 0 0 0 0 0 0 0 0 0 0 0 0 0
0 0 0 0 0 0 0 0 0 0 0 0 0 0 0 0 0 0 0 0 0 0 0 0 0 0 0 0 0 0 0 0 0 0 0 0 0 0 0 0 0 0 0 0
0 0 0 0 0 0 0 0 0 0 0 0 0 0 0 0 0 0 0 0 0 0 0 0 0 0 0 0 0 0 0 0 0 0 0 0 0 0 0 0 0 0 0 0
0 0 0 0 0 0 0 0 0 0 0 0 0 0 0 0 0 0 0 0 0 0 0 0 0 0 0 0 0 0 0 0 0 0 0 0 0 0 0 0 0 0 0 0
0 0 0 0 0 0 0 0 0 0 0 0 0 0 0 0 0 0 0 0 0 0 0 0 0 0 0 0 0 0 0 0 0 0 0 0 0 0 0 0 0 0 0 0
0 0 0 0 0 0 0 0 0 0 0 0 0 0 0 0 0 0 0 0 0 0 0 0 0 0 0 0 0 0 0 0 0 0 0 0 0 0 0 0 0 0 0 0
0 0 0 0 0 0 0 0 0 0 0 0 0 0 0 0 0 0 0 0 0 0 0 0 0 0 0 0 0 0 0 0 0 0 0 0 0 0 0 0 0 0 0 0
0 0 0 0 0 0 0 0 0 0 0 0 0 0 0 0 0 0 0 0 0 0 0 0 0 0 0 0 0 0 0 0 0 0 0 0 0 0 0 0 0 0 0 0
0 0 0 0 0 0 0 0 0 0 0 0 0 0 0 0 0 0 0 0 0 0 0 0 0 0 0 0 0 0 0 0 0 0 0 0 0 0 0 0 0 0 0 0
0 0 0 0 0 0 0 0 0 0 0 0 0 0 0 0 0 0 0 0 0 0 0 0 0 0 0 0 0 0 0 0 0 0 0 0 0 0 0 0 0 0 0 0
0 0 0 0 0 0 0 0 0 0 0 0 0 0 0 0 0 0 0 0 0 0 0 0 0 0 0 0 0 0 0 0 0 0 0 0 0 0 0 0 0 0 0 0
0 0 0 0 0 0 0 0 0 0 0 0 0 0 0 0 0 0 0 0 0 0 0 0 0 0 0 0 0 0 0 0 0 0 0 0 0 0 0 0 0 0 0 0
0 0 0 0 0 0 0 0 0 0 0 0 0 0 0 0 0 0 0 0 0 0 0 0 0 0 0 0 0 0 0 0 0 0 0 0 0 0 0 0 0 0 0 0
0 0 0 0 0 0 0 0 0 0 0 0 0 0 0 0 0 0 0 0 0 0 0 0 0 0 0 0 0 0 0 0 0 0 0 0 0 0 0 0 0 0 0 0
0 0 0 0 0 0 0 0 0 0 0 0 0 0 0 0 0 0 0 0 0 0 0 0 0 0 0 0 0 0 0 0 0 0 0 0 0 0 0 0 0 0 0 0
0 0 0 0 0 0 0 0 0 0 0 0 0 0 0 0 0 0 0 0 0 0 0 0 0 0 0 0 0 0 0 0 0 0 0 0 0 0 0 0 0 0 0 0
0 0 0 0 0 0 0 0 0 0 0 0 0 0 0 0 0 0 0 0 0 0 0 0 0 0 0 0 0 0 0 0 0 0 0 0 0 0 0 0 0 0 0 0
Wind_Speed
2 3 3 6 5 3 2 3 6 5 2 2 7 12 13 7 5 7 7 6 6 7 5 3 3 2 2 2 2 3 4 3 3 3 3 3 3 2 2 2 2 3 2 3
2 3 4 2 2 1 2 3 5 4 2 2 6 11 10 6 5 6 6 7 6 5 4 3 2 2 2 3 3 3 4 4 4 3 3 2 3 2 2 2 2 2 3 3
5 3 1 2 1 2 3 4 4 4 5 2 5 9 6 4 3 3 4 5 4 5 5 4 2 3 3 3 3 3 3 3 3 3 3 2 2 1 1 2 2 2 3 3
3 2 1 2 3 3 5 3 3 2 2 4 2 7 8 5 6 4 4 4 5 4 4 3 2 2 3 4 2 2 2 2 2 3 4 5 4 3 3 2 2 2 2 2
4 2 2 3 3 4 3 0 1 2 2 3 1 3 10 3 5 6 5 6 5 4 3 3 3 3 2 2 2 2 2 2 2 3 4 5 4 3 2 2 3 2 2 2
2 1 2 3 0 2 2 1 2 2 2 4 4 4 9 4 6 6 4 4 4 3 2 2 1 0 0 0 1 1 1 1 1 2 3 5 5 5 4 3 3 2 2 2
3 1 1 1 2 1 2 3 3 5 3 7 2 4 11 7 5 5 5 5 3 2 2 2 1 1 1 1 1 1 1 1 1 2 2 3 5 6 6 5 4 3 2 2
2 5 3 2 3 4 3 4 5 4 5 6 2 7 9 5 4 5 5 4 3 2 2 2 2 2 2 2 2 2 2 2 1 2 2 2 2 3 3 4 4 4 3 3
5 5 0 1 1 4 4 3 3 3 0 3 6 7 10 4 4 4 3 3 4 3 2 2 2 2 2 2 2 2 2 2 2 2 2 2 2 2 3 3 3 3 3 2
5 3 2 1 1 0 2 5 3 4 2 5 7 6 6 5 5 4 3 4 4 3 2 2 2 2 2 2 1 1 2 2 2 1 1 2 2 2 2 3 3 3 3 2
2 3 2 0 5 6 3 3 3 3 4 4 5 8 7 7 4 4 5 4 4 3 3 2 2 2 1 1 0 0 1 1 1 1 1 1 1 1 2 3 3 3 3 3
2 3 3 5 3 2 4 5 6 5 5 4 4 11 4 4 3 3 4 4 3 3 2 2 1 1 1 1 1 1 1 1 2 1 1 1 1 1 2 3 3 3 3 3
4 4 1 3 1 0 3 4 4 3 3 4 5 11 3 3 3 3 3 3 3 3 2 2 1 1 1 1 1 1 1 1 1 1 1 1 1 2 2 3 3 3 3 3
3 3 6 8 5 3 4 5 5 5 5 7 11 12 10 7 6 5 3 3 3 3 2 2 2 2 2 2 1 1 2 1 1 1 1 2 2 2 3 2 2 2 3 3
3 4 5 6 4 3 6 8 9 11 11 10 11 11 14 8 6 5 3 2 3 3 3 3 2 3 2 2 2 2 2 2 1 1 1 2 2 2 2 2 2 2 2 3
3 3 1 4 2 4 8 11 12 13 11 12 11 14 12 6 2 3 4 3 3 4 4 4 3 3 3 3 3 3 2 2 1 1 2 2 1 1 2 2 2 2 2 2
4 4 2 5 3 4 10 11 12 9 9 9 13 14 6 4 3 4 3 3 4 4 4 3 3 3 3 3 2 2 2 2 1 1 2 1 1 1 2 2 1 2 2 2
6 5 3 1 2 9 10 2 7 8 8 9 9 8 6 5 3 2 2 2 3 4 3 3 3 3 3 2 1 1 1 1 1 1 2 2 1 2 1 1 2 2 2 2
6 6 4 3 5 11 9 3 4 6 7 6 10 9 6 3 2 3 2 1 3 3 3 3 3 2 2 2 1 1 1 1 1 2 2 2 2 2 2 2 3 2 2 2
4 4 4 4 5 10 7 1 2 2 6 4 6 7 4 1 2 5 1 1 2 3 3 3 3 2 2 2 1 0 1 1 2 3 3 3 2 2 3 3 2 2 2 3
5 5 7 7 8 12 7 2 3 4 6 3 2 4 3 5 5 3 2 2 2 2 3 3 2 2 2 2 1 1 2 3 4 3 3 3 2 3 2 2 2 2 2 2
9 8 8 7 8 13 2 4 5 5 3 3 2 2 3 4 4 3 3 3 2 3 3 3 2 2 2 2 1 2 3 3 3 3 3 3 3 2 1 2 2 2 2 2
8 9 7 10 10 3 2 4 2 2 2 3 3 3 3 3 4 4 3 3 3 3 3 3 2 3 3 2 1 2 4 3 3 3 3 3 2 2 1 2 2 1 1 2
4 3 4 6 8 5 3 3 3 2 3 5 4 4 3 3 4 4 4 4 3 3 3 3 2 3 3 3 2 3 4 3 2 3 3 2 2 2 2 2 2 2 2 2
5 3 4 6 6 4 3 3 4 4 4 5 5 4 4 4 4 4 4 4 4 4 3 2 2 3 4 4 3 3 3 2 2 3 3 2 2 2 2 2 3 3 3 4
5 6 6 8 5 4 4 2 3 4 5 6 5 5 4 4 5 5 5 4 4 4 3 3 3 3 4 4 4 4 3 2 2 3 3 2 2 2 2 3 4 5 5 7
Wind_Direction
56 84 213 222 210 219 212 238 265 270 281 258 256 272 281 277 259 262 264 262 260 260 268 258 238 224 199 194 192 196 186 183 165 166 173 172 187 183 175 177 173 171 167 158
53 245 236 201 196 214 231 265 273 287 315 270 286 281 275 262 243 242 249 256 259 272 289 279 253 227 204 201 203 199 196 184 178 185 180 175 170 179 175 168 168 173 171 169
195 234 178 156 185 216 235 225 254 280 321 315 322 300 286 286 267 275 257 252 257 251 259 264 248 234 210 208 209 207 198 188 185 177 151 127 115 109 145 173 174 183 180 177
227 254 149 172 207 188 255 231 235 270 328 300 14 297 291 297 305 292 277 269 263 261 256 254 242 235 217 217 207 205 187 179 181 171 170 171 180 193 195 186 185 178 175 177
235 196 164 201 220 184 228 323 233 256 225 292 251 245 282 311 293 282 271 264 262 258 245 242 235 230 228 208 188 186 167 172 174 169 182 181 186 190 173 161 170 176 177 183
243 217 193 204 191 163 149 51 42 52 79 275 233 205 275 246 240 270 276 273 268 262 253 254 265 351 280 209 134 143 152 191 173 168 178 187 184 177 173 181 183 188 185 191
299 258 211 143 101 84 103 88 17 353 345 256 229 224 251 249 237 246 269 280 283 265 244 246 254 246 247 228 190 161 172 225 193 171 189 197 193 183 190 192 193 190 190 205
215 264 215 192 171 173 192 157 163 211 247 282 266 239 253 255 265 262 267 275 286 276 256 243 236 232 233 237 218 197 200 228 212 190 204 196 198 195 198 197 194 199 205 213
192 244 334 186 191 151 160 195 174 144 207 284 270 278 294 274 279 275 272 274 276 271 267 263 261 251 245 241 234 214 203 219 220 207 201 191 198 204 207 195 192 204 207 209
168 232 265 275 106 9 165 155 126 147 188 268 286 266 252 264 264 281 287 275 279 282 281 278 270 264 261 255 267 237 206 219 228 205 202 203 205 208 211 195 201 211 212 206
159 178 284 234 197 192 153 167 162 161 179 189 273 270 228 224 232 246 265 275 276 276 277 272 274 275 281 294 279 273 240 230 235 224 212 203 212 205 205 211 213 213 212 203
166 140 241 244 228 201 191 191 168 177 228 209 239 269 273 236 258 266 282 293 299 293 290 280 275 296 317 311 311 283 272 252 243 223 208 212 211 201 213 228 227 213 210 209
146 135 19 336 313 240 230 212 192 163 157 192 216 264 306 320 306 289 276 288 297 303 312 323 330 305 290 295 302 305 290 280 281 232 220 232 233 229 234 237 236 222 213 215
134 171 194 215 230 188 228 223 191 173 201 226 231 258 283 290 294 297 289 281 288 294 296 305 310 305 302 301 300 306 305 295 289 252 229 244 251 248 249 251 245 233 220 217
140 216 238 259 268 236 241 236 210 212 217 223 244 247 265 267 262 272 272 280 296 304 305 299 300 308 315 319 317 313 304 304 295 257 246 255 263 260 260 263 261 252 238 228
151 201 231 279 274 260 266 253 230 230 233 240 260 267 264 270 265 280 278 283 288 295 302 309 310 308 303 298 300 304 302 305 304 266 267 277 278 268 264 264 262 259 256 247
173 158 168 264 313 336 269 237 212 213 215 209 233 250 275 286 269 265 262 261 273 287 296 299 296 287 288 286 283 283 291 308 301 284 290 288 276 267 269 271 265 261 261 261
166 163 179 246 36 243 247 195 199 216 234 221 241 264 270 265 267 268 244 248 279 293 299 301 298 299 303 303 313 311 316 304 290 292 296 290 275 267 274 261 259 263 262 259
179 169 169 176 238 271 287 261 183 207 257 230 238 262 279 306 321 295 254 238 261 275 282 290 294 298 320 322 318 324 322 323 314 296 290 282 271 262 257 259 264 265 263 264
175 170 174 180 213 243 254 240 190 161 270 264 224 249 265 66 281 274 308 310 300 307 311 314 321 339 345 336 349 322 300 302 290 291 292 289 274 254 250 257 267 275 268 264
173 190 204 209 231 257 261 258 132 183 256 321 235 236 211 214 241 281 324 322 313 317 323 329 326 335 331 337 2 301 303 291 299 306 302 296 287 273 265 267 273 279 277 277
181 184 200 190 217 250 229 140 186 235 313 336 320 272 237 252 283 299 303 307 320 328 335 339 334 330 340 353 351 311 300 306 317 308 301 295 294 288 288 284 286 285 278 281
203 197 192 197 217 252 159 189 251 334 307 310 305 299 273 270 277 290 296 302 309 316 321 328 323 321 333 341 333 300 307 323 319 310 299 294 300 301 296 276 279 290 281 273
235 221 211 240 258 260 260 265 298 299 288 301 306 301 284 272 281 287 287 294 299 304 308 317 317 312 315 324 321 295 307 320 306 297 299 301 300 306 304 287 270 264 261 264
225 192 226 252 271 289 271 259 280 295 304 308 308 302 292 287 290 285 283 283 283 288 295 294 288 289 297 309 307 305 311 317 298 293 300 304 294 291 291 282 264 263 257 256
201 196 214 247 253 249 273 306 306 302 302 299 297 302 302 281 281 288 284 283 282 286 292 290 288 284 289 299 300 303 309 303 287 291 295 290 289 286 284 289 295 284 285 288